Cykelexperten
- Virksomhed
- Partner reklame link

Lazer Strada KinetiCore er en højkvalitets cykelhjelm designet specielt til landevejscykling og kvinder, der prioriterer sikkerhed og komfort. Denne model har en justerbar størrelse på 52-56 cm, hvilket sikrer en perfekt pasform. Hjelmen er udstyret med KinetiCore-teknologi, som giver ekstra beskyttelse ved stød og slag, hvilket øger sikkerheden markant.
EAN 5400974013429* Se den gældende produkt beskrivelse, specifikationer og pris på leverandørens side.
| Dato(DD-MM-YYYY) | Laveste pris | Gns. laveste til dd |
|---|---|---|
| 30-08-2026 | 607,00 kr | 599,50 kr |
| 29-08-2026 | 607,00 kr | 599,26 kr |
| 24-08-2026 | 608,00 kr | 599,00 kr |
| 22-08-2026 | 609,00 kr | 598,69 kr |
| 11-08-2026 | 609,00 kr | 598,32 kr |
| 08-08-2026 | 609,00 kr | 597,93 kr |
| 06-08-2026 | 609,00 kr | 597,50 kr |
| 05-08-2026 | 609,00 kr | 597,04 kr |
| 02-08-2026 | 609,00 kr | 596,54 kr |
| 31-07-2026 | 609,00 kr | 596,00 kr |
| 25-07-2026 | 609,00 kr | 595,41 kr |
| 23-07-2026 | 609,00 kr | 594,76 kr |
| 16-07-2026 | 609,00 kr | 594,05 kr |
| 13-07-2026 | 609,00 kr | 593,26 kr |
| 10-07-2026 | 609,00 kr | 592,39 kr |
| 09-07-2026 | 609,00 kr | 591,41 kr |
| 27-06-2026 | 609,00 kr | 590,31 kr |
| 21-06-2026 | 566,00 kr | 589,07 kr |
| 09-06-2026 | 541,00 kr | 590,71 kr |
| 07-06-2026 | 596,00 kr | 594,54 kr |
| 29-05-2026 | 596,00 kr | 594,42 kr |
| 28-05-2026 | 597,00 kr | 594,27 kr |
| 15-05-2026 | 610,00 kr | 594,00 kr |
| 04-05-2026 | 610,00 kr | 592,22 kr |
| 16-04-2026 | 591,00 kr | 590,00 kr |
| 02-04-2026 | 591,00 kr | 589,86 kr |
| 22-03-2026 | 595,00 kr | 589,67 kr |
| 07-03-2026 | 595,00 kr | 588,60 kr |
| 27-02-2026 | 591,00 kr | 587,00 kr |
| 21-02-2026 | 591,00 kr | 585,67 kr |
| 14-02-2026 | 583,00 kr | 583,00 kr |
| 13-02-2026 | 583,00 kr | 583,00 kr |